When you browse on this site, cookies collect data to enhance your experience and personalize the content and advertising you see.
Visit our Privacy Policy to learn more. By continuing to use the site, you agree to this use of cookies and data.
  • In Switzerland
  • List of Countries
  • For 7 days
  • Water Temperature
  • Weather Map
  • Weather Widgets
  • user-avatar
    Login

    Hourly Weather Solden

    Today, 26 August, Monday

    Time Temperature Precipitation Wind Pressure Humidity
    00:00 +8°C° 0 mm 1 mps 587 mmHg 89%
    01:00 +7°C° 0 mm 1 mps 587 mmHg 89%
    02:00 +7°C° 0 mm 1 mps 587 mmHg 89%
    03:00 +7°C° 0 mm 1 mps 586 mmHg 89%
    04:00 +7°C° 0 mm 1 mps 586 mmHg 89%
    05:00 +8°C° 0 mm 1 mps 587 mmHg 87%
    06:00 +8°C° 0 mm 0 mps 587 mmHg 85%
    07:00 +9°C° 0 mm 0 mps 588 mmHg 84%
    08:00 +12°C° 0.2 mm 1 mps 589 mmHg 78%
    09:00 +13°C° 0.2 mm 1 mps 589 mmHg 72%
    10:00 +15°C° 0.2 mm 1 mps 590 mmHg 67%
    11:00 +15°C° 1 mm 1 mps 590 mmHg 66%
    12:00 +16°C° 1 mm 1 mps 590 mmHg 66%
    13:00 +16°C° 1 mm 1 mps 590 mmHg 66%
    14:00 +16°C° 1.2 mm 1 mps 590 mmHg 69%
    15:00 +15°C° 1.2 mm 1 mps 589 mmHg 73%
    16:00 +14°C° 1.2 mm 1 mps 589 mmHg 76%
    17:00 +13°C° 1 mm 1 mps 588 mmHg 81%
    18:00 +11°C° 1 mm 1 mps 587 mmHg 86%
    19:00 +10°C° 1 mm 1 mps 587 mmHg 90%
    20:00 +9°C° 0.2 mm 1 mps 587 mmHg 90%
    21:00 +9°C° 0.2 mm 1 mps 587 mmHg 90%
    22:00 +8°C° 0.2 mm 1 mps 587 mmHg 90%
    23:00 +8°C° 0 mm 1 mps 586 mmHg 90%

    Tomorrow, 27 August, Tuesday

    Time Temperature Precipitation Wind Pressure Humidity
    00:00 +7°C° 0 mm 1 mps 586 mmHg 89%
    01:00 +7°C° 0 mm 1 mps 586 mmHg 89%
    02:00 +7°C° 0 mm 1 mps 586 mmHg 89%
    03:00 +7°C° 0 mm 1 mps 586 mmHg 89%
    04:00 +7°C° 0 mm 1 mps 586 mmHg 89%
    05:00 +8°C° 0 mm 1 mps 586 mmHg 87%
    06:00 +8°C° 0 mm 0 mps 587 mmHg 86%
    07:00 +9°C° 0 mm 0 mps 588 mmHg 84%
    08:00 +12°C° 0 mm 1 mps 589 mmHg 75%
    09:00 +14°C° 0 mm 1 mps 589 mmHg 66%
    10:00 +16°C° 0 mm 1 mps 590 mmHg 58%
    11:00 +18°C° 0.1 mm 1 mps 591 mmHg 55%
    12:00 +18°C° 0.1 mm 1 mps 591 mmHg 53%
    13:00 +18°C° 0.1 mm 2 mps 591 mmHg 50%
    14:00 +19°C° 0.3 mm 1 mps 591 mmHg 53%
    15:00 +19°C° 0.3 mm 1 mps 590 mmHg 56%
    16:00 +18°C° 0.3 mm 1 mps 590 mmHg 59%
    17:00 +15°C° 0.3 mm 1 mps 589 mmHg 69%
    18:00 +13°C° 0.3 mm 1 mps 588 mmHg 80%
    19:00 +11°C° 0.3 mm 1 mps 587 mmHg 90%
    20:00 +10°C° 0.1 mm 1 mps 587 mmHg 91%
    21:00 +9°C° 0.1 mm 1 mps 587 mmHg 91%
    22:00 +9°C° 0.1 mm 1 mps 587 mmHg 92%
    23:00 +9°C° 0 mm 1 mps 587 mmHg 92%

    Day after tomorrow, 28 August, Wednesday

    Time Temperature Precipitation Wind Pressure Humidity
    00:00 +8°C° 0 mm 1 mps 587 mmHg 92%
    01:00 +8°C° 0 mm 1 mps 587 mmHg 92%
    02:00 +8°C° 0 mm 1 mps 587 mmHg 92%
    03:00 +7°C° 0 mm 0 mps 586 mmHg 92%
    04:00 +7°C° 0 mm 0 mps 586 mmHg 92%
    05:00 +8°C° 0 mm 0 mps 587 mmHg 90%
    06:00 +9°C° 0 mm 0 mps 587 mmHg 88%
    07:00 +10°C° 0 mm 0 mps 588 mmHg 87%
    08:00 +11°C° 0 mm 0 mps 589 mmHg 81%
    09:00 +13°C° 0 mm 1 mps 589 mmHg 76%
    10:00 +15°C° 0 mm 1 mps 590 mmHg 70%
    11:00 +16°C° 0.1 mm 1 mps 590 mmHg 66%
    12:00 +16°C° 0.1 mm 1 mps 590 mmHg 61%
    13:00 +18°C° 0.1 mm 1 mps 590 mmHg 56%
    14:00 +18°C° 0.2 mm 1 mps 590 mmHg 58%
    15:00 +18°C° 0.2 mm 1 mps 590 mmHg 59%
    16:00 +16°C° 0.2 mm 1 mps 589 mmHg 60%
    17:00 +14°C° 0.2 mm 1 mps 588 mmHg 70%
    18:00 +12°C° 0.2 mm 1 mps 587 mmHg 79%
    19:00 +9°C° 0.2 mm 0 mps 586 mmHg 88%
    20:00 +10°C° 0.1 mm 1 mps 586 mmHg 88%
    21:00 +9°C° 0.1 mm 1 mps 586 mmHg 88%
    22:00 +9°C° 0.1 mm 1 mps 586 mmHg 88%
    23:00 +8°C° 0 mm 1 mps 586 mmHg 88%

    29 August, Thursday

    Time Temperature Precipitation Wind Pressure Humidity
    00:00 +8°C° 0 mm 1 mps 586 mmHg 88%
    01:00 +8°C° 0 mm 1 mps 586 mmHg 88%
    02:00 +7°C° 0 mm 1 mps 585 mmHg 88%
    03:00 +7°C° 0 mm 1 mps 585 mmHg 87%
    04:00 +7°C° 0 mm 1 mps 585 mmHg 87%
    05:00 +8°C° 0 mm 1 mps 586 mmHg 85%
    06:00 +9°C° 0 mm 1 mps 586 mmHg 82%
    07:00 +9°C° 0 mm 0 mps 587 mmHg 80%
    08:00 +12°C° 0 mm 1 mps 588 mmHg 72%
    09:00 +14°C° 0 mm 1 mps 589 mmHg 65%
    10:00 +16°C° 0 mm 1 mps 590 mmHg 58%
    11:00 +18°C° 0.1 mm 1 mps 590 mmHg 55%
    12:00 +18°C° 0.1 mm 1 mps 590 mmHg 53%
    13:00 +19°C° 0.1 mm 1 mps 590 mmHg 51%
    14:00 +19°C° 0.7 mm 1 mps 590 mmHg 53%
    15:00 +18°C° 0.7 mm 1 mps 590 mmHg 56%
    16:00 +18°C° 0.7 mm 1 mps 590 mmHg 58%
    17:00 +15°C° 1 mm 1 mps 589 mmHg 67%
    18:00 +13°C° 1 mm 1 mps 588 mmHg 75%
    19:00 +11°C° 1 mm 1 mps 587 mmHg 84%
    20:00 +11°C° 0.5 mm 1 mps 587 mmHg 85%
    21:00 +10°C° 0.5 mm 1 mps 587 mmHg 85%
    22:00 +10°C° 0.5 mm 1 mps 587 mmHg 85%
    23:00 +9°C° 0 mm 1 mps 587 mmHg 85%

    30 August, Friday

    Time Temperature Precipitation Wind Pressure Humidity
    00:00 +9°C° 0 mm 1 mps 586 mmHg 84%
    01:00 +8°C° 0 mm 1 mps 586 mmHg 84%
    02:00 +8°C° 0 mm 1 mps 586 mmHg 84%
    03:00 +8°C° 0 mm 1 mps 586 mmHg 84%
    04:00 +8°C° 0 mm 1 mps 586 mmHg 84%
    05:00 +9°C° 0 mm 1 mps 586 mmHg 83%
    06:00 +10°C° 0 mm 1 mps 587 mmHg 82%
    07:00 +11°C° 0 mm 1 mps 588 mmHg 81%
    08:00 +12°C° 0.2 mm 1 mps 588 mmHg 75%
    09:00 +14°C° 0.2 mm 1 mps 589 mmHg 68%
    10:00 +16°C° 0.2 mm 1 mps 590 mmHg 62%
    11:00 +16°C° 0.8 mm 1 mps 590 mmHg 61%
    12:00 +18°C° 0.8 mm 1 mps 590 mmHg 60%
    13:00 +19°C° 0.8 mm 1 mps 590 mmHg 59%
    14:00 +18°C° 1.2 mm 1 mps 590 mmHg 63%
    15:00 +16°C° 1.2 mm 1 mps 589 mmHg 67%
    16:00 +16°C° 1.2 mm 1 mps 589 mmHg 71%
    17:00 +14°C° 1.5 mm 1 mps 588 mmHg 77%
    18:00 +13°C° 1.5 mm 1 mps 587 mmHg 82%
    19:00 +11°C° 1.5 mm 1 mps 587 mmHg 88%
    20:00 +10°C° 0.8 mm 1 mps 587 mmHg 89%
    21:00 +10°C° 0.8 mm 1 mps 587 mmHg 89%
    22:00 +9°C° 0.8 mm 1 mps 587 mmHg 90%
    23:00 +9°C° 0 mm 1 mps 586 mmHg 90%

    31 August, Saturday

    Time Temperature Precipitation Wind Pressure Humidity
    00:00 +9°C° 0 mm 1 mps 586 mmHg 90%
    01:00 +8°C° 0 mm 1 mps 585 mmHg 89%
    02:00 +8°C° 0 mm 1 mps 585 mmHg 89%
    03:00 +7°C° 0 mm 1 mps 585 mmHg 89%
    04:00 +7°C° 0 mm 1 mps 585 mmHg 89%
    05:00 +8°C° 0 mm 1 mps 585 mmHg 88%
    06:00 +9°C° 0 mm 1 mps 586 mmHg 87%
    07:00 +10°C° 0 mm 1 mps 586 mmHg 85%
    08:00 +12°C° 0 mm 1 mps 587 mmHg 79%
    09:00 +14°C° 0 mm 1 mps 588 mmHg 72%
    10:00 +15°C° 0 mm 1 mps 588 mmHg 65%
    11:00 +16°C° 0.5 mm 1 mps 588 mmHg 63%
    12:00 +16°C° 0.5 mm 1 mps 588 mmHg 61%
    13:00 +17°C° 0.5 mm 2 mps 588 mmHg 58%
    14:00 +17°C° 0.7 mm 2 mps 588 mmHg 61%
    15:00 +16°C° 0.7 mm 2 mps 588 mmHg 63%
    16:00 +16°C° 0.7 mm 2 mps 587 mmHg 66%
    17:00 +14°C° 0.6 mm 1 mps 587 mmHg 74%
    18:00 +13°C° 0.6 mm 1 mps 586 mmHg 81%
    19:00 +11°C° 0.6 mm 1 mps 585 mmHg 89%
    20:00 +10°C° 0.3 mm 1 mps 585 mmHg 89%
    21:00 +10°C° 0.3 mm 1 mps 585 mmHg 90%
    22:00 +10°C° 0.3 mm 1 mps 585 mmHg 90%
    23:00 +9°C° 0 mm 1 mps 585 mmHg 90%
    Show more